Regional Weather Roundup
Issued by NWS

Home | Current Version | Previous Version | Text Only | Print | Product List | Glossary Off
Versions: 1 2 3 4 5 6 7 8 9 10 11 12 13 14 15 16 17 18 19 20 21 22 23 24 25 26 27 28 29 30 31 32 33 34 35 36 37 38 39 40 41 42 43 44 45 46 47 48 49 50

000
ASUS43 KOAX 251402
RWRNE

WEATHER ROUNDUP FOR NEBRASKA
NATIONAL WEATHER SERVICE OMAHA NE
900 AM CDT WED MAY 25 2016

NOTES: SATELLITE DATA IS BEING USED TO AUGMENT CLOUD COVER ABOVE
       12000 FEET.
       "FAIR" INDICATES FEW OR NO CLOUDS BELOW 12,000 FEET WITH NO
       SIGNIFICANT WEATHER AND/OR OBSTRUCTIONS TO VISIBILITY.

  * THESE STATIONS DO NOT REPORT WEATHER SUCH AS RAIN...SNOW OR FOG.

NEZ001>004-019>022-054>056-251500-
NEBRASKA PANHANDLE

CITY           SKY/WX    TMP DP  RH WIND       PRES   REMARKS
SCOTTSBLUFF    SUNNY     55  48  77 VRB5      29.94R
ALLIANCE       PTSUNNY   53  50  89 SW12      29.93R
CHADRON        SUNNY     54  32  43 SW7       29.89S
SIDNEY         PTSUNNY   51  50  96 W10       29.98R FOG
$$

NEZ057>060-069>072-079>082-251500-
SOUTHWEST NEBRASKA

CITY           SKY/WX    TMP DP  RH WIND       PRES   REMARKS
NORTH PLATTE   SUNNY     62  56  80 SE6       29.89R
IMPERIAL       SUNNY     61  52  72 SE9       29.93R
LEXINGTON      SUNNY     64  56  77 SE5       29.89S
MCCOOK         SUNNY     66  55  67 E13       29.88R
$$

NEZ005>010-023>029-035>040-094-251500-
NORTH CENTRAL NEBRASKA

CITY           SKY/WX    TMP DP  RH WIND       PRES   REMARKS
VALENTINE      MOSUNNY   60  54  80 W14       29.84R
AINSWORTH      MOSUNNY   61  56  85 SW6       29.82R
BROKEN BOW     SUNNY     66  57  72 S8        29.87F
ORD            SUNNY     63  57  81 W10       29.85R
$$

NEZ041-046>049-061>064-073>077-083>087-251500-
SOUTH CENTRAL NEBRASKA

CITY           SKY/WX    TMP DP  RH WIND       PRES   REMARKS
GRAND ISLAND   SUNNY     64  60  87 S12       29.86F
HASTINGS       SUNNY     64  59  83 E3        29.89F
KEARNEY *      SUNNY     64  59  82 SE9       29.88F
YORK           CLOUDY    64  59  82 S5        29.87F
$$

NEZ011>018-030>034-042>045-251500-
NORTHEAST NEBRASKA

CITY           SKY/WX    TMP DP  RH WIND       PRES   REMARKS
NORFOLK        CLOUDY    64  59  83 S7        29.79F
ALBION         PTSUNNY   63  60  91 S10       29.82S
BLAIR          PTSUNNY   66  61  82 CALM      29.89F
FREMONT        CLOUDY    65  60  82 SE9       29.84F
TEKAMAH        CLOUDY    66  61  84 SE8       29.85F
$$

NEZ050>053-065>068-078-088>093-251500-
SOUTHEAST NEBRASKA

CITY           SKY/WX    TMP DP  RH WIND       PRES   REMARKS
LINCOLN        LGT RAIN  64  62  93 S5        29.89F
OMAHA EPPLEY   CLOUDY    67  62  84 SW3       29.89S
FALLS CITY     LGT RAIN  64  61  90 W8        29.90F
$$

NEZ044-045-051>053-067-251500-
OMAHA AREA

CITY           SKY/WX    TMP DP  RH WIND       PRES   REMARKS
OMAHA EPPLEY   CLOUDY    67  62  84 SW3       29.89S
BLAIR          PTSUNNY   66  61  82 CALM      29.89F
FREMONT        CLOUDY    65  60  82 SE9       29.84F
OFFUTT AFB     PTSUNNY   65  63  93 S5        29.89S
$$



USA.gov is the U.S. government's official web portal to all federal, state and local government web resources and services.